| time (UTC) | temp F | wind direction | speed knots | gust knots | rain 1hr in | rain 24hr in | rain mn in | humidity % | barometer mb |
| 20260504050511 | 50 | 330 | 0.0 | 7.0 | 0.00 | 0.00 | 0.00 | 73 | 1017.7 |
| 20260504043510 | 48 | 136 | 0.0 | 0.9 | 0.00 | 0.00 | 0.00 | 79 | 1017.6 |
| 20260504040510 | 48 | 136 | 0.0 | 0.9 | 0.00 | 0.00 | 0.00 | 79 | 1017.5 |
| 20260504033510 | 49 | 129 | 0.0 | 0.9 | 0.00 | 0.00 | 0.00 | 78 | 1017.4 |
| 20260504023509 | 50 | 132 | 0.0 | 0.9 | 0.00 | 0.00 | 0.00 | 72 | 1017.3 |
| 20260504020509 | 50 | 144 | 0.0 | 0.9 | 0.00 | 0.00 | 0.00 | 69 | 1017.3 |
| 20260504013509 | 50 | 105 | 0.0 | 0.9 | 0.00 | 0.00 | 0.00 | 66 | 1017.0 |
| 20260504010509 | 51 | 105 | 0.0 | 0.9 | 0.00 | 0.00 | 0.00 | 62 | 1016.8 |
| 20260504000509 | 53 | 105 | 0.0 | 0.0 | 0.00 | 0.00 | 0.00 | 54 | 1016.1 |
| 20260503233509 | 55 | 105 | 0.0 | 0.0 | 0.00 | 0.00 | 0.00 | 51 | 1015.9 |
| 20260503230509 | 58 | 105 | 0.0 | 1.7 | 0.00 | 0.00 | 0.00 | 50 | 1015.9 |
| 20260503220508 | 68 | 215 | 0.0 | 1.7 | 0.00 | 0.00 | 0.00 | 35 | 1016.0 |
| 20260503213509 | 67 | 325 | 0.0 | 5.2 | 0.00 | 0.00 | 0.00 | 35 | 1015.9 |
| 20260503200509 | 65 | 122 | 0.9 | 7.8 | 0.00 | 0.00 | 0.00 | 35 | 1016.0 |
| 20260503193508 | 67 | 302 | 1.7 | 7.0 | 0.00 | 0.00 | 0.00 | 39 | 1016.6 |
| 20260503190508 | 64 | 299 | 0.9 | 7.0 | 0.00 | 0.00 | 0.00 | 39 | 1016.9 |
| 20260503180508 | 64 | 201 | 0.0 | 7.8 | 0.00 | 0.00 | 0.00 | 39 | 1017.4 |
| 20260503173507 | 61 | 243 | 1.7 | 10.4 | 0.00 | 0.00 | 0.00 | 45 | 1017.7 |
| 20260503170507 | 61 | 233 | 0.9 | 9.6 | 0.00 | 0.00 | 0.00 | 40 | 1017.9 |
| 20260503150506 | 57 | 18 | 0.0 | 10.4 | 0.00 | 0.00 | 0.00 | 47 | 1018.2 |
| 20260503130505 | 52 | 267 | 3.5 | 10.4 | 0.00 | 0.00 | 0.00 | 57 | 1018.0 |
| 20260503110504 | 45 | 335 | 0.0 | 7.0 | 0.00 | 0.00 | 0.00 | 71 | 1016.9 |
| 20260503090503 | 45 | 139 | 0.0 | 0.0 | 0.00 | 0.00 | 0.00 | 74 | 1014.9 |
| 20260503080503 | 48 | 324 | 0.0 | 4.3 | 0.00 | 0.00 | 0.00 | 68 | 1014.4 |